Nashville, TN

4:51 AM CDT on September 18, 2019 (GMT -0500)
Nashville International

Weather History for KBNA - July, 2019

Change the Weather History Date:

Friday, July 19, 2019

  Actual Average Record
Temperature  
Mean Temperature 85 °F 80 °F  
Max Temperature 96 °F 89 °F 101 °F (1980)
Min Temperature 73 °F 70 °F 57 °F (1976)
Degree Days  
Heating Degree Days 0    
Month to date heating degree days 0  
Since 1 June heating degree days 0  
Since 1 July heating degree days 0  
Cooling Degree Days 20    
Month to date cooling degree days 345  
Year to date cooling degree days 1050  
Since 1 June cooling degree days 714  
Growing Degree Days 34 (Base 50)    
Moisture  
Dew Point 71 °F    
Average Humidity 66    
Maximum Humidity 93    
Minimum Humidity 46    
Precipitation  
Precipitation 0.00 in 0.11 in 4.02 in (1921)
Month to date precipitation 1.06 2.31  
Year to date precipitation 38.87 27.75  
Sea Level Pressure  
Sea Level Pressure 30.01 in    
Wind  
Wind Speed 5 mph (SSW)    
Max Wind Speed 9 mph    
Max Gust Speed 12 mph    
Visibility 10 miles    
Events      
T = Trace of Precipitation, MM = Missing Value Source: NWS Daily Summary

Daily Weather History Graph

Daily Weather History Graph

Search for Another Location

Airport or City:

Astronomy

Jul. 19, 2019 Rise Set
Actual Time 5:43 AM CDT 8:01 PM CDT
Civil Twilight 5:14 AM CDT 8:31 PM CDT
Nautical Twilight 4:38 AM CDT 9:06 PM CDT
Astronomical Twilight 3:59 AM CDT 9:46 PM CDT
Moon 10:03 PM CDT (7/19) 8:07 AM CDT (7/19)
Length of Visible Light 15h 16m
Length of Day
14h 17m
Waning Gibbous, 93% of the Moon is Illuminated
Jul 19
Waning Gibbous
Jul 24
Last Quarter
Jul 31
New
Aug 7
First Quarter
Aug 15
Full

Hourly Weather History & Observations

Time (CDT) Temp. Heat Index Dew Point Humidity Pressure Visibility Wind Dir Wind Speed Gust Speed Precip Events Conditions
12:53 AM 73.9 °F - 71.1 °F 91% 30.00 in 10.0 mi South 5.8 mph - N/A   Scattered Clouds
1:53 AM 75.0 °F - 71.1 °F 87% 30.01 in 10.0 mi Calm Calm - N/A   Scattered Clouds
2:53 AM 73.9 °F - 71.1 °F 91% 30.00 in 10.0 mi South 4.6 mph - N/A   Mostly Cloudy
3:53 AM 73.0 °F - 70.0 °F 90% 30.00 in 10.0 mi South 3.5 mph - N/A   Mostly Cloudy
4:53 AM 73.0 °F - 70.0 °F 90% 30.01 in 10.0 mi South 3.5 mph - N/A   Mostly Cloudy
5:53 AM 73.9 °F - 70.0 °F 87% 30.03 in 10.0 mi SSE 3.5 mph - N/A   Scattered Clouds
6:53 AM 75.9 °F - 71.1 °F 85% 30.04 in 10.0 mi South 4.6 mph - N/A   Scattered Clouds
7:53 AM 78.1 °F - 72.0 °F 81% 30.06 in 10.0 mi South 5.8 mph - N/A   Mostly Cloudy
8:53 AM 82.9 °F 89.4 °F 73.9 °F 74% 30.07 in 10.0 mi Variable 3.5 mph - N/A   Scattered Clouds
9:53 AM 87.1 °F 94.5 °F 73.0 °F 63% 30.07 in 10.0 mi Variable 5.8 mph - N/A   Scattered Clouds
10:53 AM 89.1 °F 98.0 °F 73.9 °F 61% 30.07 in 10.0 mi WNW 4.6 mph - N/A   Mostly Cloudy
11:53 AM 89.1 °F 96.0 °F 72.0 °F 57% 30.06 in 10.0 mi WNW 3.5 mph - N/A   Mostly Cloudy
12:53 PM 90.0 °F 95.4 °F 70.0 °F 52% 30.04 in 10.0 mi Variable 4.6 mph - N/A   Mostly Cloudy
1:53 PM 93.9 °F 100.8 °F 71.1 °F 47% 30.01 in 10.0 mi Variable 5.8 mph - N/A   Mostly Cloudy
2:53 PM 95.0 °F 102.5 °F 71.1 °F 46% 30.00 in 10.0 mi WSW 8.1 mph - N/A   Mostly Cloudy
3:53 PM 93.0 °F 99.0 °F 70.0 °F 47% 29.99 in 10.0 mi Variable 4.6 mph - N/A   Mostly Cloudy
4:53 PM 93.0 °F 99.0 °F 70.0 °F 47% 29.99 in 10.0 mi WSW 3.5 mph - N/A   Mostly Cloudy
5:53 PM 93.9 °F 100.3 °F 70.0 °F 46% 29.97 in 10.0 mi West 8.1 mph - N/A   Mostly Cloudy
6:53 PM 91.0 °F 97.6 °F 71.1 °F 52% 29.97 in 10.0 mi WSW 4.6 mph - N/A   Mostly Cloudy
7:53 PM 88.0 °F 95.6 °F 73.0 °F 61% 29.98 in 10.0 mi SW 6.9 mph - N/A   Mostly Cloudy
8:53 PM 87.1 °F 95.4 °F 73.9 °F 65% 29.99 in 10.0 mi SW 5.8 mph - N/A   Mostly Cloudy
9:53 PM 84.9 °F 91.4 °F 73.0 °F 67% 30.00 in 10.0 mi SW 5.8 mph - N/A   Scattered Clouds
10:53 PM 82.0 °F 87.4 °F 73.0 °F 74% 30.00 in 10.0 mi South 4.6 mph - N/A   Scattered Clouds
11:53 PM 82.0 °F 86.7 °F 72.0 °F 71% 30.00 in 10.0 mi SW 3.5 mph - N/A   Partly Cloudy